Starlink 5998

operational
NORAD ID: 56468 Int'l Des: 2023-064 Owner: SPXS Country: US Constellation: starlink
LEOCIRCULAR

Über Starlink 5998

Beschreibung wird geladen...

Live-Position

3D-Globus wird geladen...

Nächste Überflüge

Höhenverlauf

Altitude vs Time

uPlot chart will show altitude changes over time

Zweizeiliger Elementsatz

1 56468U 23064W 25350.72748350 .00001031 00000-0 94205-4 0 9994
2 56468 70.0000 353.4490 0002908 273.3364 86.7462 14.98331639142820
Epoch: 16. Dez. 2025 • Age: 16 hours

Aktueller Status

Höhe 592.8 km
Geschwindigkeit 7.56 km/s
Subsatellitenpunkt -60.35°S, 88.33°E
Startdatum 10. Mai 2023
Alter 2.6 years
Typ internet

Technische Details

Klassifizierung Payload
Masse 305.00 kg
Trockenmasse 290.00 kg
Gesamtmasse 305.00 kg
Länge 0.20 m
Durchmesser 2.80 m
Spannweite 9.00 m
Form Box + pan
Hersteller SPXS
Bus-Typ Starlink
Phasenstatus In Orbit
Besitzer/Staat SPXS/US

Große Konstellationen

Loading constellations...